Starlink 32618

operational
NORAD ID: 62045 Int'l Des: 2024-216 Owner: SPXS Country: US Constellation: starlink
LEOCIRCULAR

About Starlink 32618

Description loading...

Live Position

Loading 3D Globe...

Upcoming Passes

Altitude History

Altitude vs Time

uPlot chart will show altitude changes over time

Two-Line Element Set

1 62045U 24216P 25305.59851845 .00025441 00000-0 93122-3 0 9998
2 62045 43.0015 259.8954 0001653 260.4011 99.6654 15.27567095 54288
Epoch: Nov 1, 2025 • Age: 7 hours

Current Status

Altitude 485.3 km
Velocity 7.63 km/s
Sub-Earth Point 34.06°N, 50.11°W
Launch Date Nov 21, 2024
Age 0.9 years
Type internet

Technical Details

Classification Payload
Mass 730.00 kg
Dry Mass 700.00 kg
Total Mass 730.00 kg
Length 0.30 m
Diameter 4.10 m
Span 29.00 m
Shape Box + pan
Manufacturer SPXS
Bus Type Starlink V2M
Phase Status In Orbit
Owner/State SPXS/US

Large Constellations

Loading constellations...